Content
SEND FEEDBACK

Daily
Averages
Monthly
Summary
Canada

VANCOUVER - UNIVERSITY, BRITISH COLUMBIA


Home > North America > Canada > British Columbia
Elevation: 249 feet     Latitude: 49 15N     Longitude: 123 15W

WEATHER
 
SELECT A DAY
Number of Records: 194,403;   Date Range: 1/1/95 - 7/28/14
 
SHARE

PRINT THIS DATA

[ ← Previous Day ]
WEATHER ALMANAC - JULY 3, 2013
[ Next Day → ]
[ °C ]   °F
Weather ElementAverageHighLow
Temperature66 °F70 °F (5:00 pm)59 °F (1:00 am)
Dewpoint55.4 °F59 °F (8:00 pm)51 °F (11:00 pm)
Humidity67.7 %82 % (1:00 am)44 % (5:00 pm)
Barometer30.09 in30.15 in (9:00 am)30.03 in (8:00 pm)
Wind Speed7.8 mph16.1 mph (2:00 am)
Weather ElementAverage
Visibility26.8 mi
Wind DirectionSSW (210 °)

Weather ElementTotal
Precipitation---
Heating Degree Days0.5 (Base 65)
Growing Degree Days14.5 (Base 50)
Averaged from 27 records on July 3, 2013
WEATHER CONDITIONS BREAKOUT
WIND DIRECTION BREAKOUT
WEATHER BY HOUR - JULY 3, 2013
[ °C ]   °F
Local TimeTemperatureDewpointHumidityBarometerVisibilityWind DirectionWind SpeedGust SpeedPrecipitationEventsConditions
1:00 AM59.0 °F53.6 °F82 %30.07 in15.0 miEast (100°)6.9 mphClear
2:00 AM64.4 °F55.4 °F73 %30.08 in15.0 miWNW (300°)16.1 mphClear
3:00 AM62.6 °F55.4 °F77 %30.09 in15.0 miWNW (300°)12.7 mphClear
4:00 AM62.6 °F55.4 °F77 %30.09 in15.0 miWNW (290°)16.1 mphClear
5:00 AM62.0 °F55.0 °F73 %30.11 in19.0 miWNW (300°)12.7 mph
5:00 AM62.6 °F55.4 °F77 %30.10 in20.0 miWNW (300°)11.5 mphClear
6:00 AM59.0 °F53.6 °F82 %30.12 in30.0 miNE (50°)4.6 mphClear
7:00 AM62.6 °F53.6 °F72 %30.13 in30.0 miESE (120°)5.8 mphClear
8:00 AM64.4 °F53.6 °F68 %30.14 in30.0 miCalmClear
9:00 AM66.2 °F55.4 °F68 %30.15 in30.0 miWNW (290°)12.7 mphPartly Cloudy
10:00 AM68.0 °F57.2 °F68 %30.14 in30.0 miNorthPartly Cloudy
11:00 AM68.0 °F57.0 °F58 %30.14 in28.0 miWest (280°)9.2 mphScattered Clouds
11:00 AM68.0 °F57.2 °F68 %30.14 in30.0 miWest (270°)8.1 mphPartly Cloudy
12:00 PM68.0 °F57.2 °F68 %30.14 in30.0 miWest (260°)10.4 mphPartly Cloudy
1:00 PM69.8 °F57.2 °F64 %30.14 in30.0 miWNW (290°)8.1 mphPartly Cloudy
2:00 PM69.8 °F57.2 °F64 %30.12 in30.0 miWest (280°)6.9 mphPartly Cloudy
3:00 PM69.8 °F57.2 °F64 %30.11 in30.0 miWSW (250°)6.9 mphPartly Cloudy
4:00 PM69.8 °F57.2 °F64 %30.09 in30.0 miWSW (250°)5.8 mphPartly Cloudy
5:00 PM70.0 °F53.0 °F44 %30.07 in28.0 miWest (260°)4.6 mphScattered Clouds
5:00 PM69.8 °F53.6 °F56 %30.07 in30.0 miWSW (250°)4.6 mphPartly Cloudy
6:00 PM69.8 °F55.4 °F60 %30.05 in30.0 miWSW (240°)6.9 mphClear
7:00 PM69.8 °F57.2 °F64 %30.04 in30.0 miWSW (240°)4.6 mphClear
8:00 PM68.0 °F59.0 °F73 %30.03 in30.0 miWSW (240°)4.6 mphClear
9:00 PM68.0 °F55.4 °F64 %30.03 in30.0 miSSE (150°)3.5 mphClear
10:00 PM64.4 °F55.4 °F73 %30.04 in30.0 miEast (100°)9.2 mphClear
11:00 PM62.0 °F51.0 °F59 %30.05 in28.0 miSE (130°)4.6 mph
11:00 PM62.6 °F51.8 °F68 %30.04 in30.0 miSE (130°)5.8 mphClear
Hourly data recorded from CYVR, located miles away from Vancouver - University, British Columbia







STORIES FROM OUR PARTNERS